Location: Rumah Dana
(3.1167°N, 113.0167°E)
Time: 03:41:13
(UTC+00:00)

Cosmos 44 - Pass Details

Date: 20 January 2026
Orbit: 570 x 780 km, 65.1° (Epoch: 11 February)

Event Time Altitude Azimuth Distance (km) Brightness Sun altitude
Rises 11:10:57 0° 199° (SSW) 2,785 7.0 -8.6°
Reaches altitude 10° 11:13:08 10° 197° (SSW) 1,901 6.1 -9.1°
Maximum altitude 11:17:24 76° 111° (ESE) 622 2.9 -10.1°
Drops below altitude 10° 11:21:51 10° 26° (NNE) 1,991 5.2 -11.1°
Enters shadow 11:22:42 - 25° (NNE) 2,331 5.6 -11.3°
